Jilin-1 GaoFen 03D 28 xing

operational
NORAD ID: 52445 Int'l Des: 2022-048 Owner: CGSTL Country: CN Constellation: jilin-1
LEOCIRCULARRETROGRADE

Jilin-1 GaoFen 03D 28 xingについて

説明を読み込み中...

リアルタイム位置

3D地球を読み込み中...

次回通過

高度履歴

Altitude vs Time

uPlot chart will show altitude changes over time

軌道要素

1 52445U 22048C 26061.16845371 .00075276 00000-0 97234-3 0 9991
2 52445 97.5586 167.0389 0003827 112.1833 247.9829 15.58706536212760
Epoch: Mar 2, 2026 • Age: 29 hours

現在のステータス

高度 400.8 km
速度 7.68 km/s
衛星直下点 68.74°N, 87.55°W
打ち上げ日 May 5, 2022
運用期間 3.8 years
タイプ earth observation

技術仕様

分類 Payload
質量 42.00 kg
乾燥質量 42.00 kg
総質量 42.00 kg
長さ 1.50 m
直径 1.00 m
スパン 1.50 m
形状 Box
製造者 CGSTL
バスタイプ JL-1
フェーズステータス In Orbit
所有者/国 CGSTL/CN

大規模コンステレーション

Loading constellations...